STARLINK-1902

Last updated on Tue Nov 24 2020 00:02:02 GMT+0000 (Coordinated Universal Time)

1 46763U 20074AA 20328.58334491 -.01090118 00000-0 -18123-1 0 9999 2 46763 53.0552 13.6073 0001147 63.6214 291.4000 15.54231675 1852

Satellite not in orbit